| time (UTC) | temp F | wind direction | speed MPH | gust MPH | rain 1hr in | rain 24hr in | rain mn in | humidity % | barometer mb |
| 20260507210516 | 73 | 197 | 0.0 | 1.0 | 0.00 | 0.11 | 0.00 | 45 | 1016.6 |
| 20260507205537 | 73 | 168 | 1.0 | 2.0 | 0.00 | 0.11 | 0.00 | 43 | 1016.6 |
| 20260507204517 | 73 | 147 | 2.0 | 4.0 | 0.00 | 0.11 | 0.00 | 45 | 1016.5 |
| 20260507203517 | 73 | 50 | 1.0 | 2.0 | 0.00 | 0.11 | 0.00 | 45 | 1016.4 |
| 20260507202517 | 73 | 47 | 1.0 | 4.0 | 0.00 | 0.11 | 0.00 | 44 | 1016.3 |
| 20260507201517 | 73 | 49 | 2.0 | 5.0 | 0.00 | 0.11 | 0.00 | 44 | 1016.4 |
| 20260507200518 | 73 | 48 | 1.0 | 3.0 | 0.00 | 0.11 | 0.00 | 44 | 1016.6 |
| 20260507195518 | 73 | 47 | 2.0 | 4.0 | 0.00 | 0.11 | 0.00 | 43 | 1016.9 |
| 20260507194518 | 74 | 46 | 2.0 | 6.0 | 0.00 | 0.11 | 0.00 | 44 | 1016.9 |
| 20260507193518 | 74 | 53 | 2.0 | 4.0 | 0.00 | 0.11 | 0.00 | 41 | 1017.1 |
| 20260507192518 | 74 | 47 | 2.0 | 6.0 | 0.00 | 0.11 | 0.00 | 43 | 1017.4 |
| 20260507191515 | 75 | 60 | 2.0 | 4.0 | 0.00 | 0.11 | 0.00 | 41 | 1017.6 |
| 20260507190515 | 75 | 223 | 2.0 | 5.0 | 0.00 | 0.11 | 0.00 | 40 | 1017.7 |
| 20260507185516 | 74 | 50 | 2.0 | 4.0 | 0.00 | 0.11 | 0.00 | 43 | 1017.5 |
| 20260507184516 | 74 | 46 | 2.0 | 5.0 | 0.00 | 0.11 | 0.00 | 42 | 1017.5 |
| 20260507183516 | 74 | 46 | 3.0 | 8.0 | 0.00 | 0.11 | 0.00 | 41 | 1017.5 |
| 20260507182516 | 73 | 46 | 2.0 | 6.0 | 0.00 | 0.11 | 0.00 | 44 | 1017.5 |
| 20260507181516 | 72 | 47 | 4.0 | 8.0 | 0.00 | 0.11 | 0.00 | 44 | 1017.6 |
| 20260507180516 | 71 | 43 | 3.0 | 7.0 | 0.00 | 0.11 | 0.00 | 45 | 1017.7 |
| 20260507175517 | 71 | 31 | 2.0 | 7.0 | 0.00 | 0.11 | 0.00 | 46 | 1017.8 |
| 20260507174517 | 71 | 43 | 2.0 | 6.0 | 0.00 | 0.11 | 0.00 | 46 | 1018.0 |
| 20260507173517 | 70 | 41 | 2.0 | 6.0 | 0.00 | 0.11 | 0.00 | 49 | 1018.1 |
| 20260507172517 | 70 | 47 | 2.0 | 4.0 | 0.00 | 0.11 | 0.00 | 50 | 1018.3 |
| 20260507171517 | 69 | 48 | 1.0 | 4.0 | 0.00 | 0.11 | 0.00 | 54 | 1018.6 |
| 20260507170517 | 69 | 53 | 2.0 | 6.0 | 0.00 | 0.11 | 0.00 | 55 | 1018.9 |
| 20260507165518 | 68 | 48 | 2.0 | 7.0 | 0.00 | 0.11 | 0.00 | 55 | 1019.3 |
| 20260507164518 | 69 | 53 | 1.0 | 5.0 | 0.00 | 0.11 | 0.00 | 54 | 1019.5 |
| 20260507163518 | 68 | 62 | 2.0 | 6.0 | 0.00 | 0.11 | 0.00 | 56 | 1019.6 |
| 20260507162518 | 68 | 54 | 1.0 | 4.0 | 0.00 | 0.11 | 0.00 | 57 | 1019.5 |
| 20260507161518 | 67 | 59 | 1.0 | 4.0 | 0.00 | 0.11 | 0.00 | 60 | 1019.7 |
| 20260507160516 | 66 | 51 | 1.0 | 6.0 | 0.00 | 0.11 | 0.00 | 61 | 1019.7 |
| 20260507155515 | 65 | 55 | 2.0 | 7.0 | 0.00 | 0.11 | 0.00 | 63 | 1019.5 |
| 20260507154516 | 67 | 55 | 2.0 | 6.0 | 0.00 | 0.11 | 0.00 | 61 | 1019.5 |
| 20260507153516 | 67 | 60 | 1.0 | 4.0 | 0.00 | 0.11 | 0.00 | 61 | 1019.6 |
| 20260507152536 | 66 | 47 | 1.0 | 4.0 | 0.00 | 0.11 | 0.00 | 63 | 1019.9 |
| 20260507151516 | 65 | 59 | 2.0 | 4.0 | 0.00 | 0.12 | 0.00 | 64 | 1019.9 |
| 20260507150517 | 65 | 56 | 1.0 | 4.0 | 0.00 | 0.12 | 0.00 | 66 | 1020.0 |
| 20260507145517 | 65 | 62 | 1.0 | 3.0 | 0.00 | 0.17 | 0.00 | 64 | 1020.0 |
| 20260507144517 | 64 | 58 | 1.0 | 4.0 | 0.00 | 0.17 | 0.00 | 67 | 1020.1 |
| 20260507143517 | 63 | 55 | 1.0 | 6.0 | 0.00 | 0.17 | 0.00 | 69 | 1020.2 |
| 20260507142517 | 63 | 63 | 1.0 | 4.0 | 0.00 | 0.17 | 0.00 | 71 | 1020.1 |
| 20260507141517 | 63 | 60 | 1.0 | 4.0 | 0.00 | 0.17 | 0.00 | 72 | 1020.2 |
| 20260507140517 | 62 | 59 | 2.0 | 4.0 | 0.00 | 0.17 | 0.00 | 73 | 1020.4 |
| 20260507135538 | 61 | 41 | 1.0 | 2.0 | 0.00 | 0.17 | 0.00 | 77 | 1020.3 |
| 20260507134518 | 60 | 58 | 1.0 | 4.0 | 0.00 | 0.17 | 0.00 | 78 | 1020.5 |
| 20260507133558 | 59 | 61 | 1.0 | 3.0 | 0.00 | 0.17 | 0.00 | 83 | 1020.5 |
| 20260507132535 | 58 | 57 | 1.0 | 3.0 | 0.00 | 0.17 | 0.00 | 89 | 1020.6 |
| 20260507131538 | 56 | 310 | 0.0 | 2.0 | 0.00 | 0.17 | 0.00 | 91 | 1020.7 |
| 20260507130556 | 55 | 327 | 0.0 | 2.0 | 0.00 | 0.17 | 0.00 | 93 | 1020.7 |
| 20260507125556 | 54 | 66 | 0.0 | 1.0 | 0.00 | 0.17 | 0.00 | 94 | 1020.7 |
| 20260507124516 | 54 | 70 | 0.0 | 2.0 | 0.00 | 0.17 | 0.00 | 94 | 1020.6 |
| 20260507123516 | 53 | 58 | 0.0 | 1.0 | 0.00 | 0.17 | 0.00 | 94 | 1020.6 |
| 20260507122536 | 53 | 52 | 0.0 | 1.0 | 0.00 | 0.17 | 0.00 | 94 | 1020.3 |
| 20260507121516 | 53 | 64 | 0.0 | 1.0 | 0.00 | 0.17 | 0.00 | 94 | 1020.4 |
| 20260507120516 | 53 | 52 | 0.0 | 1.0 | 0.00 | 0.17 | 0.00 | 93 | 1020.5 |
| 20260507115517 | 53 | 38 | 0.0 | 0.0 | 0.00 | 0.17 | 0.00 | 93 | 1020.6 |
| 20260507114517 | 53 | 76 | 0.0 | 0.0 | 0.00 | 0.17 | 0.00 | 92 | 1020.5 |
| 20260507113517 | 53 | 0.0 | 0.0 | 0.00 | 0.17 | 0.00 | 92 | 1020.3 | |
| 20260507112517 | 54 | 77 | 0.0 | 1.0 | 0.00 | 0.17 | 0.00 | 92 | 1020.0 |
| 20260507111517 | 54 | 343 | 0.0 | 1.0 | 0.00 | 0.17 | 0.00 | 92 | 1019.9 |
| 20260507110537 | 53 | 29 | 0.0 | 1.0 | 0.00 | 0.17 | 0.00 | 92 | 1019.8 |
| 20260507105518 | 53 | 24 | 0.0 | 1.0 | 0.00 | 0.17 | 0.00 | 92 | 1019.8 |
| 20260507104517 | 53 | 26 | 0.0 | 2.0 | 0.00 | 0.17 | 0.00 | 92 | 1019.5 |
| 20260507103518 | 53 | 33 | 0.0 | 1.0 | 0.00 | 0.17 | 0.00 | 92 | 1019.4 |
| 20260507102518 | 53 | 13 | 0.0 | 1.0 | 0.00 | 0.17 | 0.00 | 91 | 1019.1 |
| 20260507101518 | 53 | 10 | 0.0 | 2.0 | 0.00 | 0.17 | 0.00 | 91 | 1019.0 |
| 20260507100515 | 54 | 34 | 0.0 | 1.0 | 0.00 | 0.17 | 0.00 | 91 | 1018.8 |
| 20260507095516 | 54 | 314 | 0.0 | 2.0 | 0.00 | 0.17 | 0.00 | 90 | 1018.7 |
| 20260507094515 | 54 | 14 | 0.0 | 1.0 | 0.00 | 0.17 | 0.00 | 89 | 1018.5 |
| 20260507093516 | 54 | 71 | 0.0 | 1.0 | 0.00 | 0.17 | 0.00 | 88 | 1018.3 |
| 20260507092516 | 55 | 125 | 0.0 | 1.0 | 0.00 | 0.17 | 0.00 | 87 | 1018.2 |
| 20260507091557 | 55 | 54 | 0.0 | 1.0 | 0.00 | 0.17 | 0.00 | 86 | 1018.3 |
| 20260507090557 | 56 | 60 | 1.0 | 3.0 | 0.00 | 0.17 | 0.00 | 85 | 1018.2 |
| 20260507085517 | 56 | 54 | 2.0 | 3.0 | 0.00 | 0.17 | 0.00 | 85 | 1018.0 |
| 20260507084517 | 56 | 53 | 1.0 | 3.0 | 0.00 | 0.17 | 0.00 | 86 | 1017.8 |
| 20260507083517 | 56 | 52 | 1.0 | 3.0 | 0.00 | 0.17 | 0.00 | 86 | 1017.8 |
| 20260507082518 | 56 | 52 | 1.0 | 5.0 | 0.00 | 0.17 | 0.00 | 86 | 1018.0 |
| 20260507081517 | 56 | 47 | 0.0 | 2.0 | 0.00 | 0.17 | 0.00 | 85 | 1018.1 |
| 20260507080537 | 57 | 37 | 0.0 | 4.0 | 0.00 | 0.17 | 0.00 | 84 | 1018.1 |
| 20260507075538 | 57 | 52 | 0.0 | 2.0 | 0.00 | 0.17 | 0.00 | 83 | 1018.0 |
| 20260507074538 | 57 | 49 | 1.0 | 3.0 | 0.00 | 0.17 | 0.00 | 81 | 1017.9 |
| 20260507073516 | 58 | 50 | 1.0 | 4.0 | 0.00 | 0.17 | 0.00 | 81 | 1017.7 |
| 20260507072536 | 58 | 53 | 2.0 | 4.0 | 0.00 | 0.17 | 0.00 | 80 | 1017.5 |
| 20260507071515 | 58 | 51 | 2.0 | 4.0 | 0.00 | 0.17 | 0.00 | 80 | 1017.2 |
| 20260507070536 | 58 | 42 | 2.0 | 5.0 | 0.00 | 0.17 | 0.00 | 81 | 1017.2 |
| 20260507065516 | 58 | 49 | 2.0 | 7.0 | 0.00 | 0.17 | 0.00 | 81 | 1017.1 |
| 20260507064516 | 58 | 47 | 3.0 | 6.0 | 0.00 | 0.17 | 0.00 | 82 | 1017.2 |
| 20260507063517 | 58 | 53 | 2.0 | 4.0 | 0.00 | 0.17 | 0.00 | 82 | 1017.3 |
| 20260507062516 | 59 | 52 | 2.0 | 4.0 | 0.00 | 0.17 | 0.00 | 82 | 1017.3 |
| 20260507061517 | 59 | 58 | 2.0 | 6.0 | 0.00 | 0.17 | 0.00 | 81 | 1017.2 |
| 20260507060517 | 59 | 59 | 1.0 | 3.0 | 0.00 | 0.17 | 0.00 | 81 | 1017.1 |
| 20260507055537 | 59 | 62 | 2.0 | 5.0 | 0.00 | 0.17 | 0.00 | 79 | 1017.1 |
| 20260507054517 | 59 | 61 | 2.0 | 5.0 | 0.00 | 0.17 | 0.00 | 78 | 1017.1 |
| 20260507053517 | 60 | 56 | 2.0 | 4.0 | 0.00 | 0.17 | 0.00 | 78 | 1017.1 |
| 20260507052537 | 60 | 59 | 2.0 | 4.0 | 0.00 | 0.17 | 0.00 | 77 | 1017.1 |
| 20260507051538 | 60 | 58 | 1.0 | 3.0 | 0.00 | 0.17 | 0.00 | 77 | 1017.2 |
| 20260507050518 | 60 | 61 | 2.0 | 4.0 | 0.00 | 0.17 | 0.00 | 77 | 1017.0 |
| 20260507045521 | 60 | 54 | 2.0 | 5.0 | 0.00 | 0.17 | 0.17 | 76 | 1017.0 |
| 20260507044536 | 60 | 53 | 2.0 | 5.0 | 0.00 | 0.17 | 0.17 | 76 | 1017.1 |
| 20260507043516 | 60 | 55 | 2.0 | 8.0 | 0.00 | 0.17 | 0.17 | 75 | 1017.2 |
| 20260507042516 | 60 | 50 | 2.0 | 9.0 | 0.00 | 0.17 | 0.17 | 75 | 1017.3 |
| 20260507041537 | 60 | 53 | 2.0 | 4.0 | 0.00 | 0.17 | 0.17 | 75 | 1017.3 |
| 20260507040516 | 61 | 53 | 3.0 | 8.0 | 0.00 | 0.17 | 0.17 | 76 | 1017.3 |
| 20260507035516 | 61 | 52 | 2.0 | 5.0 | 0.00 | 0.17 | 0.17 | 78 | 1017.4 |
| 20260507034517 | 61 | 52 | 2.0 | 6.0 | 0.00 | 0.17 | 0.17 | 80 | 1017.4 |
| 20260507033517 | 61 | 62 | 2.0 | 3.0 | 0.00 | 0.17 | 0.17 | 80 | 1017.4 |
| 20260507032518 | 61 | 53 | 1.0 | 4.0 | 0.00 | 0.17 | 0.17 | 81 | 1017.3 |
| 20260507031518 | 61 | 56 | 1.0 | 4.0 | 0.00 | 0.17 | 0.17 | 81 | 1017.2 |
| 20260507030638 | 61 | 57 | 1.0 | 4.0 | 0.00 | 0.17 | 0.17 | 82 | 1017.1 |
| 20260507025517 | 60 | 62 | 1.0 | 3.0 | 0.00 | 0.17 | 0.17 | 83 | 1017.0 |
| 20260507024518 | 60 | 50 | 1.0 | 4.0 | 0.00 | 0.17 | 0.17 | 85 | 1016.9 |
| 20260507023518 | 61 | 71 | 0.0 | 2.0 | 0.00 | 0.17 | 0.17 | 85 | 1016.7 |
| 20260507022518 | 61 | 61 | 0.0 | 1.0 | 0.00 | 0.17 | 0.17 | 83 | 1016.4 |
| 20260507021515 | 61 | 56 | 2.0 | 4.0 | 0.00 | 0.17 | 0.17 | 82 | 1016.1 |
| 20260507020515 | 61 | 61 | 1.0 | 2.0 | 0.00 | 0.17 | 0.17 | 82 | 1015.9 |
| 20260507015516 | 61 | 55 | 2.0 | 5.0 | 0.00 | 0.17 | 0.17 | 84 | 1015.7 |
| 20260507014516 | 60 | 61 | 1.0 | 4.0 | 0.00 | 0.17 | 0.17 | 89 | 1015.5 |
| 20260507013516 | 61 | 62 | 0.0 | 2.0 | 0.00 | 0.17 | 0.17 | 89 | 1015.3 |
| 20260507012517 | 61 | 60 | 1.0 | 2.0 | 0.00 | 0.17 | 0.17 | 89 | 1015.1 |
| 20260507011516 | 61 | 62 | 1.0 | 2.0 | 0.00 | 0.17 | 0.17 | 89 | 1014.9 |
| 20260507010517 | 61 | 59 | 1.0 | 2.0 | 0.00 | 0.17 | 0.17 | 89 | 1014.8 |
| 20260507005517 | 61 | 56 | 0.0 | 2.0 | 0.00 | 0.17 | 0.17 | 89 | 1014.8 |
| 20260507004517 | 61 | 64 | 0.0 | 1.0 | 0.00 | 0.17 | 0.17 | 89 | 1014.6 |
| 20260507003517 | 61 | 48 | 0.0 | 1.0 | 0.00 | 0.17 | 0.17 | 89 | 1014.6 |
| 20260507002517 | 61 | 66 | 0.0 | 2.0 | 0.00 | 0.17 | 0.17 | 89 | 1014.5 |
| 20260507001517 | 61 | 98 | 0.0 | 2.0 | 0.00 | 0.17 | 0.17 | 88 | 1014.5 |
| 20260507000517 | 61 | 67 | 0.0 | 1.0 | 0.00 | 0.17 | 0.17 | 88 | 1014.3 |
| 20260506235518 | 61 | 71 | 0.0 | 1.0 | 0.00 | 0.17 | 0.17 | 88 | 1014.3 |
| 20260506234518 | 61 | 62 | 0.0 | 2.0 | 0.01 | 0.17 | 0.17 | 88 | 1014.2 |
| 20260506233518 | 60 | 58 | 1.0 | 2.0 | 0.10 | 0.17 | 0.17 | 87 | 1014.0 |
| 20260506232515 | 60 | 58 | 1.0 | 3.0 | 0.11 | 0.17 | 0.17 | 87 | 1014.0 |
| 20260506231539 | 60 | 77 | 1.0 | 3.0 | 0.11 | 0.17 | 0.17 | 87 | 1014.2 |
| 20260506230515 | 60 | 63 | 0.0 | 2.0 | 0.11 | 0.17 | 0.17 | 86 | 1013.9 |
| 20260506225516 | 61 | 56 | 2.0 | 4.0 | 0.11 | 0.17 | 0.17 | 84 | 1013.9 |
| 20260506224515 | 62 | 359 | 1.0 | 3.0 | 0.10 | 0.16 | 0.16 | 80 | 1014.1 |
| 20260506223516 | 63 | 55 | 1.0 | 3.0 | 0.01 | 0.07 | 0.07 | 72 | 1014.4 |
| 20260506222517 | 64 | 59 | 1.0 | 6.0 | 0.00 | 0.06 | 0.06 | 70 | 1013.6 |
| 20260506221517 | 64 | 43 | 1.0 | 3.0 | 0.00 | 0.06 | 0.06 | 70 | 1013.6 |
| 20260506220517 | 64 | 30 | 1.0 | 2.0 | 0.00 | 0.06 | 0.06 | 70 | 1013.6 |
| 20260506215516 | 63 | 42 | 1.0 | 3.0 | 0.00 | 0.06 | 0.06 | 71 | 1013.8 |
| 20260506214517 | 63 | 53 | 1.0 | 4.0 | 0.00 | 0.06 | 0.06 | 71 | 1013.6 |
| 20260506213517 | 63 | 45 | 1.0 | 3.0 | 0.00 | 0.06 | 0.06 | 70 | 1013.8 |
| 20260506212518 | 63 | 26 | 1.0 | 6.0 | 0.00 | 0.06 | 0.06 | 70 | 1013.5 |
| 20260506211538 | 63 | 56 | 1.0 | 4.0 | 0.00 | 0.06 | 0.06 | 70 | 1013.7 |